Powrót do katalogu

STARLINK-3567

AktywnyŁącznośćVLEO
NORAD 51871·PAYLOAD·🇺🇸 United States

Wystrzelony Mar 3, 2022 z Cape Canaveral Space Force Station

Loading…

Następne Przeloty (najbliższe 24 godziny)

TLE

ŚwieżeSource: CelesTrak SupGP

Epoka: Sep 15, 2026, 01:36 UTC

1 51871C 22022V   26258.06715278 -.00023632  00000+0 -69828-3 0  2580
2 51871  53.1572 229.4598 0001286  93.2136 182.1513 15.34398861    17

Śledź STARLINK-3567 w czasie rzeczywistym z AllMySat

Download on the App Store